Location: Unnamed
(20.9059°S, 55.5018°E)
Time: 08:14:46
(UTC+04:00)

ISS - Visible Passes

Search period start: 08 December 2021 00:00
Search period end: 18 December 2021 00:00
Orbit: 417 x 422 km, 51.6° (Epoch: 07 December)

Date Brightness Start Highest point End Pass type
(mag) Time Alt. Az. Time Alt. Az. Time Alt. Az.
11 Dec -2.9 20:39:32 10° NW 20:42:49 50° SW 20:44:21 27° SSE visible
12 Dec -0.4 04:54:43 10° S 04:56:47 15° SE 04:58:50 10° E visible
12 Dec -3.9 19:52:06 10° NNW 19:55:28 71° NE 19:58:50 10° SE visible
13 Dec -0.2 20:43:19 10° WSW 20:44:58 13° SW 20:46:38 10° SSW visible
14 Dec -3.1 04:55:33 10° SSW 04:58:54 62° SE 05:02:14 10° NE visible
14 Dec -1.1 19:54:41 10° WNW 19:57:29 24° SW 20:00:18 10° S visible
15 Dec -1.5 04:08:31 10° SSW 04:11:30 28° SE 04:14:29 10° ENE visible
16 Dec -0.5 03:21:56 10° S 03:24:02 15° SE 03:26:07 10° E visible
16 Dec -2.7 04:57:58 10° WSW 05:00:47 25° NW 05:03:35 10° N visible
17 Dec -3.8 04:10:20 11° SW 04:13:30 55° NW 04:16:47 10° NNE visible
